Date,TemperatureHighF,TemperatureAvgF,TemperatureLowF,DewpointHighF,DewpointAvgF,DewpointLowF,HumidityHigh,HumidityAvg,HumidityLow,PressureMaxIn,PressureMinIn,WindSpeedMaxMPH,WindSpeedAvgMPH,GustSpeedMaxMPH,PrecipitationSumIn
2012-1-1,51.2,39.8,30.9,45.0,32.8,18.3,88,76,58,29.95,29.50,11,7,30,0.10
2012-1-2,30.1,23.9,21.9,22.6,17.3,14.9,85,76,61,29.95,29.79,16,4,24,0.01
2012-1-3,21.9,17.1,13.8,17.3,10.5,4.0,82,75,56,30.23,29.95,20,4,27,0.00
2012-1-4,24.7,20.8,14.1,11.0,9.8,9.1,81,62,54,30.17,29.94,14,7,16,0.00
2012-1-5,39.7,33.2,28.4,26.6,22.6,19.0,76,65,50,29.95,29.75,7,3,15,0.01
2012-1-6,55.1,45.2,37.9,33.0,28.4,23.7,62,52,41,29.75,29.63,18,7,20,0.00
2012-1-7,47.4,42.6,36.9,32.8,28.2,26.1,72,57,48,30.02,29.61,14,3,16,0.00
2012-1-8,39.8,33.5,27.9,28.3,23.3,19.2,82,67,46,30.23,30.01,9,1,9,0.00
2012-1-9,39.6,34.4,26.1,23.5,21.6,20.5,80,60,49,30.12,29.90,7,1,8,0.00
2012-1-10,36.2,31.6,29.4,26.0,21.8,20.9,72,67,60,29.97,29.86,6,0,8,0.00
2012-1-11,41.8,37.2,27.8,39.7,32.5,23.0,92,83,66,29.86,29.32,16,5,18,0.25
2012-1-12,43.1,39.2,23.0,41.2,36.5,19.1,93,90,86,29.39,29.22,22,4,23,0.22
2012-1-13,22.7,16.9,14.8,19.4,10.7,5.6,87,77,64,29.55,29.39,25,7,28,0.00
2012-1-14,21.0,18.4,16.7,12.8,11.3,9.5,81,74,65,30.12,29.91,2,1,13,0.00
2012-1-15,24.5,20.5,12.6,13.3,11.7,8.4,84,68,61,30.41,30.12,14,5,14,0.01
2012-1-16,44.6,31.9,17.8,35.5,22.5,10.8,78,69,48,30.33,29.80,19,8,19,0.03
2012-1-17,53.8,45.1,31.6,48.2,39.0,23.4,92,79,61,29.83,29.38,34,10,34,0.19
2012-1-18,31.6,24.0,17.0,25.9,14.0,8.9,81,66,52,30.14,29.82,22,4,24,0.00
2012-1-19,28.5,22.2,10.4,25.2,15.7,3.8,90,76,62,30.03,29.74,22,6,23,0.00
2012-1-20,21.6,13.1,1.1,14.3,5.1,-4.4,84,71,51,30.22,29.92,12,1,13,0.00
2012-1-21,26.3,21.6,18.1,18.9,15.8,12.5,86,78,67,30.21,29.82,16,3,16,0.00
2012-1-22,41.5,29.5,16.7,33.8,22.3,12.2,86,75,60,30.19,29.87,15,4,16,0.17
2012-1-23,56.5,45.4,36.3,49.2,39.1,27.2,92,79,64,29.87,29.45,26,8,29,0.40
2012-1-24,35.8,34.5,30.1,28.5,27.1,22.4,80,74,72,30.23,29.82,13,2,14,0.00
2012-1-25,31.8,29.8,29.0,26.9,23.0,22.1,85,76,72,30.28,30.07,8,1,8,0.00
2012-1-26,54.4,38.4,30.9,52.8,36.1,26.9,97,91,85,30.07,29.31,16,2,16,0.37
2012-1-27,54.1,53.9,53.9,51.9,51.9,51.9,93,93,93,29.31,29.31,7,6,9,0.15
2012-1-28,35.9,32.8,29.8,31.9,23.3,12.2,89,70,41,30.06,29.77,9,5,31,0.02
2012-1-29,38.9,28.5,24.5,26.9,18.9,13.9,86,68,43,30.15,29.84,24,6,25,0.00
2012-1-30,47.1,30.7,18.9,26.9,18.8,12.8,80,62,44,30.23,29.94,19,5,20,0.01
2012-1-31,58.3,50.5,42.9,41.7,30.3,24.6,71,46,35,30.00,29.84,27,8,29,0.00
2012-2-1,50.5,47.3,45.2,44.5,41.0,39.2,86,79,71,29.90,29.82,21,6,23,0.03
2012-2-2,39.2,35.8,30.4,32.2,27.2,23.4,86,71,66,30.32,29.93,13,2,19,0.00
2012-2-3,48.3,34.7,23.9,30.9,26.1,20.9,89,72,45,30.42,30.23,7,0,8,0.00
2012-2-4,34.9,33.4,31.2,32.0,29.5,25.6,91,86,77,30.24,30.01,8,0,8,0.18
2012-2-5,41.6,33.7,26.4,29.4,25.2,22.7,87,72,51,30.15,30.00,10,1,11,0.00
2012-2-6,46.1,34.5,23.5,31.4,24.8,19.8,88,70,45,30.12,29.98,13,2,16,0.00
2012-2-7,37.2,33.6,30.4,27.9,26.1,23.4,82,74,62,30.18,30.00,9,2,11,0.00
2012-2-8,31.3,28.9,23.0,26.5,23.8,18.3,87,81,75,30.18,30.09,9,2,11,0.02
2012-2-9,34.1,27.1,21.3,21.3,18.4,16.9,83,70,56,30.21,30.08,12,2,14,0.03
2012-2-10,30.9,28.7,27.0,24.5,20.2,16.7,86,71,59,30.08,29.77,16,2,16,0.00
2012-2-11,28.2,17.7,12.1,25.6,11.5,2.9,90,76,65,30.10,29.66,27,8,27,0.00
2012-2-12,22.5,18.4,13.4,13.1,10.4,6.4,78,71,62,30.10,30.06,6,3,19,0.00
2012-2-13,33.9,25.1,16.4,15.4,12.7,9.8,79,60,42,30.11,29.95,5,2,14,0.01
2012-2-14,33.7,32.5,30.1,30.9,28.5,14.6,92,86,52,29.96,29.79,10,2,10,0.03
2012-2-15,37.6,33.6,31.9,30.6,28.1,25.5,92,81,70,30.18,29.95,11,2,11,0.01
2012-2-16,45.7,41.8,37.3,43.8,37.8,30.9,93,86,76,30.01,29.82,18,3,18,0.23
2012-2-17,35.5,34.2,32.5,29.3,28.4,27.3,81,79,78,30.00,29.98,7,1,10,0.00
2012-2-18,41.7,34.5,27.5,26.5,22.7,19.2,75,62,46,30.07,29.89,11,4,25,0.00
2012-2-19,34.4,28.0,23.2,19.9,18.0,16.4,79,66,53,30.06,29.93,9,4,18,0.00
2012-2-20,41.3,34.6,24.8,20.0,17.8,15.7,70,51,37,30.27,30.04,10,2,13,0.00
2012-2-21,45.7,38.8,30.7,36.2,26.7,16.5,85,62,44,30.11,29.65,21,7,23,0.02
2012-2-22,54.4,45.7,38.3,33.8,31.7,27.6,80,59,38,29.69,29.26,14,4,22,0.02
2012-2-23,49.2,43.4,32.2,36.0,30.3,21.6,90,63,35,29.53,29.26,23,3,23,0.11
2012-2-24,47.9,36.4,29.7,41.0,30.9,24.7,92,81,50,29.65,29.24,29,5,37,0.01
2012-2-25,30.0,27.6,24.7,27.4,21.6,18.0,91,78,65,30.24,29.65,20,4,24,0.01
2012-2-26,40.6,35.0,23.2,20.8,16.4,13.8,70,47,37,30.36,30.13,9,4,12,0.08
2012-2-27,56.0,37.0,28.1,29.5,19.3,14.9,71,50,28,30.36,30.04,25,5,31,0.00
2012-2-28,44.2,33.9,21.0,25.6,21.3,16.9,86,62,38,30.40,30.07,10,1,10,0.00
2012-2-29,41.2,38.1,35.9,38.5,28.9,20.9,92,71,45,30.07,29.66,22,4,22,0.70
2012-3-1,55.6,38.8,36.8,39.2,28.5,26.6,73,66,48,29.82,29.41,23,3,27,0.00
2012-3-2,58.0,49.2,30.6,48.7,39.3,26.1,90,70,39,29.82,29.25,24,7,27,0.26
2012-3-3,51.0,37.4,31.0,37.2,26.4,18.4,70,64,56,29.69,29.31,23,5,30,0.00
2012-3-4,35.3,29.3,26.0,25.5,22.2,18.8,89,75,58,29.78,29.65,14,2,16,0.00
2012-3-5,26.7,24.5,20.3,22.7,19.1,15.6,86,80,72,30.39,29.77,15,1,19,0.01
2012-3-6,51.6,35.4,20.0,24.3,19.0,14.1,82,55,28,30.42,30.16,18,6,19,0.01
2012-3-7,65.3,55.9,46.2,37.8,29.5,20.9,43,36,31,30.23,30.00,27,10,27,0.00
2012-3-8,60.1,45.7,33.8,49.4,33.6,24.5,88,65,42,30.06,29.82,23,9,27,0.47
2012-3-9,38.5,33.5,28.5,26.5,20.5,13.3,77,60,41,30.36,30.06,30,6,30,0.00
2012-3-10,44.3,33.2,21.3,17.9,13.6,9.0,70,46,27,30.49,30.28,14,3,15,0.00
2012-3-11,64.8,49.0,32.9,30.8,23.2,16.8,55,37,22,30.32,30.13,13,2,16,0.00
2012-3-12,57.3,51.8,46.5,52.8,41.1,26.7,91,69,40,30.14,29.85,15,5,15,0.23
2012-3-13,60.2,57.2,52.9,53.8,51.5,48.5,86,81,66,29.92,29.82,20,5,20,0.02
2012-3-14,74.2,59.0,40.5,47.0,41.1,34.1,85,55,32,30.08,29.98,8,1,12,0.00
2012-3-15,68.9,62.2,53.1,54.3,52.0,43.9,81,70,49,30.06,29.92,16,5,19,0.15
2012-3-16,59.8,58.9,57.0,53.9,53.4,52.7,87,82,78,29.98,29.93,10,2,11,0.07
2012-3-21,79.6,70.2,57.4,54.6,51.1,44.6,81,53,29,30.08,29.96,6,2,13,0.00
2012-3-22,81.4,68.6,53.7,54.5,51.0,46.0,90,58,29,30.04,29.93,3,1,10,0.00
2012-3-23,81.0,67.6,53.3,62.2,48.9,43.7,90,55,28,29.94,29.72,7,2,21,0.38
2012-3-24,66.8,61.2,57.1,58.1,55.4,51.7,93,82,63,29.74,29.65,6,2,10,0.17
2012-3-25,57.6,53.6,49.5,51.6,49.2,46.4,93,85,74,29.85,29.68,8,4,19,0.01
2012-3-26,49.4,40.9,33.2,46.3,26.9,15.7,91,59,37,30.25,29.86,12,8,28,0.00
2012-3-27,54.1,46.4,25.8,21.9,17.6,12.1,72,33,22,30.29,29.88,12,4,12,0.48
2012-3-28,73.3,59.8,49.2,52.9,34.7,17.9,60,40,26,29.89,29.57,33,5,33,0.00
2012-3-29,50.2,43.5,35.9,37.7,31.2,27.4,71,62,54,30.00,29.76,9,5,20,0.00
2012-3-30,64.1,45.1,30.4,55.2,35.5,25.6,91,71,48,30.00,29.56,9,3,15,0.21
2012-3-31,54.7,41.9,37.9,52.1,36.6,33.0,91,82,71,29.84,29.60,7,4,14,0.00
2012-4-1,64.3,46.3,39.1,53.8,40.2,32.6,87,80,48,29.82,29.51,15,6,25,0.13
2012-4-2,57.2,46.2,38.3,39.0,32.6,22.5,83,62,34,29.91,29.63,25,2,25,0.00
2012-4-3,67.1,50.7,35.0,42.1,29.0,21.8,66,45,26,29.93,29.67,13,1,13,0.01
2012-4-4,61.2,51.5,39.8,40.3,30.8,17.0,70,48,18,29.79,29.68,24,5,27,0.00
2012-4-5,52.5,42.2,32.5,30.7,26.9,21.6,83,56,37,29.91,29.74,21,4,21,0.00
2012-4-6,55.4,42.4,31.2,28.9,21.7,10.7,83,49,19,30.12,29.90,23,4,26,0.00
2012-4-7,59.9,44.7,27.0,27.2,19.0,11.2,83,42,16,30.21,30.05,15,2,15,0.00
2012-4-8,58.9,48.8,36.9,42.8,27.2,14.1,75,45,23,30.06,29.87,30,4,30,0.00
2012-4-9,57.8,46.6,39.2,37.7,29.9,17.3,80,55,26,29.92,29.69,29,3,30,0.00
2012-4-10,45.7,39.7,35.0,26.4,23.7,20.1,70,53,36,29.87,29.71,18,5,21,0.00
2012-4-11,35.0,34.4,34.1,28.3,27.4,25.9,79,75,70,29.87,29.84,9,2,12,0.00
2012-4-12,55.1,42.8,29.4,30.6,27.6,24.8,88,60,32,30.14,30.02,5,1,15,0.00
2012-4-13,43.2,38.5,32.1,26.8,25.1,24.1,75,59,50,30.16,30.06,4,0,4,0.00
2012-4-14,54.7,51.5,40.6,52.4,44.7,30.5,95,79,48,30.05,29.88,10,4,10,0.00
2012-4-15,78.1,65.3,54.2,57.2,52.3,47.8,93,66,38,29.89,29.76,20,4,21,0.00
2012-4-16,78.1,69.4,54.5,57.7,50.3,39.1,60,51,34,30.03,29.69,31,8,31,0.00
2012-4-17,54.7,50.3,44.9,40.6,38.8,36.4,81,65,50,30.21,30.03,14,1,19,0.00
2012-4-18,63.4,52.8,39.1,36.4,34.0,29.0,73,50,34,30.17,29.93,6,0,18,0.00
2012-4-19,72.8,63.0,45.5,48.8,44.1,36.0,92,53,34,29.96,29.79,9,1,10,0.00
2012-4-20,76.3,63.9,50.5,50.6,46.2,42.6,76,54,33,29.79,29.57,22,3,22,0.00
2012-4-21,55.7,45.1,39.2,48.3,40.0,33.9,90,82,76,29.85,29.59,13,4,21,0.00
2012-4-22,44.8,40.6,39.1,34.9,32.7,30.8,84,74,61,29.83,29.64,27,5,30,0.00
2012-4-23,48.9,44.3,39.2,34.2,23.5,11.5,82,46,25,29.64,29.43,51,14,51,0.00
2012-4-24,53.2,45.6,36.2,23.8,20.5,16.4,50,37,26,29.48,29.39,24,6,28,0.00
2012-4-25,62.9,51.5,37.4,43.7,30.7,27.0,79,48,27,29.73,29.59,2,1,13,0.00
2012-4-26,59.6,51.0,42.8,56.3,45.4,38.6,90,81,70,29.82,29.50,13,3,27,0.00
2012-4-27,49.6,42.7,37.7,38.9,25.9,18.4,87,54,29,30.14,29.83,7,4,18,0.00
2012-4-28,44.3,39.3,34.1,36.9,27.7,19.3,79,64,37,30.15,30.01,4,1,16,0.00
2012-4-29,63.4,48.6,32.1,28.9,24.9,17.1,82,45,21,30.19,30.08,3,1,11,0.00
2012-4-30,80.1,60.8,46.1,64.7,39.0,20.1,80,46,31,30.10,29.74,5,2,26,0.00
2012-5-1,72.7,64.4,59.6,58.7,55.7,51.8,93,75,48,29.92,29.74,6,1,20,0.00
2012-5-2,83.0,73.0,60.1,65.6,61.8,56.2,93,70,45,29.88,29.80,16,2,19,0.17
2012-5-3,87.4,75.6,64.0,67.3,61.8,57.4,92,65,38,29.94,29.79,15,1,18,0.30
2012-5-4,78.6,69.9,62.6,65.5,61.1,55.2,92,75,48,29.88,29.75,12,2,12,0.32
2012-5-5,76.8,66.7,55.7,62.8,58.2,44.8,94,76,53,29.91,29.74,12,2,13,0.00
2012-5-6,79.6,63.3,47.9,50.7,43.7,35.5,81,53,23,29.92,29.82,9,0,9,0.00
2012-5-7,79.0,64.7,52.3,65.7,55.1,37.2,92,72,47,29.85,29.61,21,1,22,0.42
2012-5-8,62.3,61.6,61.3,60.0,59.5,59.3,93,93,92,29.66,29.62,5,0,6,0.00
2012-5-9,66.0,57.9,52.8,53.4,48.7,42.3,93,74,44,29.70,29.58,7,1,27,0.05
2012-5-10,60.2,49.4,43.6,44.4,37.7,29.9,86,66,33,29.90,29.65,8,2,20,0.00
2012-5-11,70.4,54.7,37.5,42.9,36.9,31.4,91,57,27,30.08,29.90,19,1,19,0.00
2012-5-12,72.3,58.3,43.3,48.8,43.4,37.9,91,61,31,30.15,30.06,9,0,11,0.00
2012-5-13,60.4,56.7,52.3,53.8,51.3,47.6,90,82,70,30.07,29.98,5,0,5,0.00
2012-5-14,69.4,60.7,55.3,55.8,54.3,53.0,92,81,58,29.98,29.85,10,0,10,0.00
2012-5-15,78.1,64.9,49.8,58.2,48.1,39.1,94,61,27,29.89,29.78,11,0,11,0.00
2012-5-16,73.7,59.4,44.5,55.0,47.1,31.2,86,65,42,29.98,29.75,21,2,21,0.00
2012-5-17,68.1,54.1,35.8,41.2,34.8,31.4,88,52,27,30.07,29.98,12,1,15,0.00
2012-5-18,77.7,60.6,40.6,43.4,38.0,31.2,80,45,22,30.02,29.93,7,0,12,0.00
2012-5-19,81.8,62.1,49.6,51.2,45.3,40.5,78,57,28,30.02,29.95,7,0,14,0.00
2012-5-20,87.0,67.5,52.6,57.5,51.2,46.7,88,61,27,30.05,29.89,9,0,10,0.00
2012-5-21,82.4,71.7,58.7,59.0,54.2,49.7,78,55,38,29.90,29.73,15,1,15,0.00
2012-5-22,66.9,61.9,55.7,58.3,55.0,51.2,87,78,69,29.81,29.74,11,1,15,0.00
2012-5-23,81.1,65.0,49.6,60.3,54.7,47.4,94,72,45,29.82,29.73,8,0,8,0.00
2012-5-24,81.1,70.8,58.3,62.8,58.7,55.1,91,68,47,29.84,29.75,10,1,10,0.00
2012-5-25,84.3,72.9,64.7,65.9,62.2,59.1,82,70,52,29.93,29.79,6,0,11,0.00
2012-5-26,88.6,76.4,63.2,65.5,59.9,53.6,91,60,35,30.02,29.91,10,0,11,0.00
2012-5-27,90.5,75.9,62.6,70.2,62.4,54.9,81,64,41,29.98,29.83,15,1,15,0.00
2012-5-28,84.5,71.6,66.4,71.0,65.7,63.6,92,82,61,29.86,29.80,7,0,8,0.00
2012-6-26,74.6,63.2,48.0,48.5,45.9,42.7,91,58,32,29.90,29.80,6,2,20,0.00
2012-6-27,84.3,69.1,51.3,53.3,49.5,46.6,89,55,28,29.89,29.75,2,0,12,0.00
2012-6-28,93.2,77.8,61.6,69.7,58.1,51.0,72,52,36,29.78,29.55,2,0,15,0.00
2012-6-29,93.6,83.6,69.5,72.2,66.5,55.7,81,58,35,29.72,29.57,8,1,28,0.01
2012-6-30,89.0,74.2,59.9,67.4,61.2,57.4,92,67,41,29.81,29.66,2,1,14,0.00
2012-7-1,91.9,78.1,63.3,69.8,63.0,56.2,91,64,33,29.92,29.69,7,1,37,0.45
2012-7-2,89.9,82.0,59.5,68.2,63.4,57.8,95,56,37,29.91,29.80,10,0,10,0.00
2012-7-3,83.8,74.2,65.2,70.8,66.0,61.2,88,76,58,29.88,29.72,4,0,20,0.20
2012-7-4,94.1,82.2,69.8,72.9,68.3,65.0,85,65,42,29.78,29.68,2,0,16,0.00
2012-7-5,87.9,79.0,71.8,69.9,64.2,60.7,85,61,41,29.83,29.73,7,1,30,0.00
2012-7-6,95.8,84.7,70.1,71.4,67.9,65.1,92,59,43,29.83,29.77,10,0,13,0.00
2012-7-7,98.5,83.5,67.6,74.9,69.3,64.9,92,66,38,29.81,29.71,15,1,15,0.00
2012-7-8,85.3,76.1,70.6,71.7,66.4,64.3,82,73,52,29.83,29.74,9,0,10,0.00
2012-7-9,83.8,73.7,60.5,62.2,54.5,49.0,79,54,31,29.88,29.82,4,1,13,0.00
2012-7-10,84.4,73.3,63.1,58.7,55.5,50.1,80,56,37,29.94,29.86,3,1,12,0.00
2012-7-11,85.6,74.0,58.9,60.0,53.4,49.3,80,52,30,29.99,29.92,2,0,11,0.00
2012-7-12,87.1,69.6,61.4,59.2,56.4,54.3,83,65,39,29.97,29.94,1,0,6,0.00
2012-7-13,76.1,71.2,68.1,66.1,60.3,56.9,86,69,54,30.00,29.97,2,0,10,0.00
2012-7-14,74.7,73.1,65.0,67.3,65.8,59.4,82,78,74,30.01,29.93,0,0,6,0.00
2012-7-15,86.1,76.0,70.9,70.6,67.0,62.6,86,74,53,29.97,29.84,12,1,13,0.03
2012-7-16,72.7,70.9,68.9,66.9,66.4,65.6,90,86,79,29.87,29.83,1,0,1,0.00
2012-7-19,78.1,71.8,67.2,71.3,68.2,65.4,94,88,74,29.84,29.71,1,0,8,0.47
2012-7-20,71.9,68.9,66.6,69.3,65.3,61.5,93,88,82,29.87,29.73,4,1,14,0.15
2012-7-21,81.1,70.5,63.5,62.9,60.7,58.5,90,73,49,29.96,29.87,1,0,9,0.00
2012-7-22,87.3,75.0,63.9,64.2,61.9,58.6,92,68,40,30.00,29.93,1,0,10,0.00
2012-7-23,86.6,77.3,70.3,70.7,66.0,63.7,82,69,47,29.95,29.73,2,1,15,0.00
2012-7-24,84.5,77.9,69.4,70.9,67.1,52.5,86,70,55,29.81,29.65,10,3,25,0.01
2012-7-25,86.3,72.0,56.4,61.0,54.3,48.4,90,58,32,29.85,29.62,2,0,10,0.00
2012-7-26,76.9,76.4,76.3,66.8,65.3,61.0,72,69,58,29.62,29.58,2,0,5,0.00
2012-7-27,88.1,76.9,70.0,69.2,65.6,57.9,93,72,39,29.73,29.57,2,1,14,0.00
2012-7-28,76.4,70.3,66.1,67.1,65.0,62.7,94,84,68,29.91,29.70,6,1,20,1.56
2012-7-29,83.5,72.1,61.0,63.2,59.6,55.5,94,68,40,29.95,29.88,0,0,0,0.01
2012-7-30,85.7,73.0,59.0,65.6,58.4,53.9,90,64,35,29.91,29.80,0,0,0,0.00
2012-7-31,86.7,76.6,63.6,66.5,62.7,58.8,92,65,39,29.80,29.68,0,0,1,0.00
2012-8-1,87.0,77.7,64.5,66.6,60.9,55.0,92,58,35,29.76,29.70,9,0,10,0.00
2012-8-2,89.7,74.1,57.6,62.3,57.0,47.2,93,60,27,29.80,29.73,8,0,8,0.00
2012-8-3,92.1,83.3,64.5,67.5,62.4,56.0,85,52,31,29.83,29.75,8,0,9,0.00
2012-8-4,89.3,79.0,67.8,70.2,67.1,63.7,89,68,49,29.89,29.80,11,1,12,0.00
2012-8-5,81.4,74.2,69.6,73.0,68.6,65.6,93,83,59,29.93,29.82,20,1,20,1.09
2012-8-6,83.6,70.3,61.0,65.9,58.9,53.8,91,70,38,30.00,29.88,10,1,11,0.00
2012-8-7,85.7,73.0,57.0,63.7,58.5,51.3,92,64,32,29.90,29.83,7,0,7,0.00
2012-8-8,89.3,67.4,58.7,65.4,59.4,55.7,92,77,39,29.85,29.77,0,0,10,0.00
2012-8-9,87.0,71.4,63.9,66.8,63.8,61.5,93,79,47,29.82,29.66,9,0,10,0.00
2012-8-10,74.5,67.5,63.5,68.1,62.0,57.1,94,83,58,29.63,29.53,3,0,14,0.37
2012-8-11,66.5,62.2,58.3,60.1,56.0,52.6,91,80,72,29.82,29.63,3,1,19,0.02
2012-8-12,78.6,71.5,60.3,60.0,55.9,51.2,94,60,41,29.89,29.82,9,0,10,0.01
2012-8-13,81.8,68.7,58.9,61.7,58.2,53.1,93,72,41,29.91,29.80,8,0,8,0.01
2012-8-14,75.4,67.8,61.5,64.7,61.4,58.8,92,81,64,29.80,29.70,14,0,14,0.00
2012-8-15,62.7,61.3,60.1,59.4,58.8,57.8,93,91,89,29.78,29.77,0,0,0,0.00
2012-8-16,84.3,71.6,58.5,61.9,58.5,56.2,92,67,41,29.86,29.69,3,1,16,0.00
2012-8-17,78.3,70.6,64.6,62.2,58.1,53.2,88,66,42,29.81,29.68,3,1,13,0.00
2012-8-18,76.6,65.2,52.8,54.5,51.4,47.6,93,65,36,29.86,29.78,1,0,9,0.00
2012-8-19,78.1,66.6,57.2,59.3,51.5,47.5,81,60,34,29.81,29.71,4,1,19,0.00
2012-8-20,78.3,67.7,55.2,61.2,54.8,44.7,94,66,31,29.86,29.74,14,1,15,0.01
2012-8-21,77.9,63.4,53.2,58.9,54.3,50.7,93,75,40,29.97,29.86,11,1,11,0.03
2012-8-22,83.2,66.5,51.0,59.9,52.5,46.8,94,67,30,30.04,29.95,0,0,0,0.01
2012-8-23,81.8,62.0,54.5,59.8,54.7,51.5,92,79,35,30.03,29.98,0,0,0,0.00
2012-8-24,89.1,83.3,72.1,59.3,54.2,50.8,64,39,28,29.97,29.93,0,0,0,0.00
2012-8-25,87.2,75.2,63.4,60.9,57.7,53.1,84,58,32,30.03,29.96,1,0,8,0.00
2012-8-26,85.9,78.2,59.5,62.5,60.6,52.7,83,56,43,30.06,29.92,8,0,9,0.00
2012-8-27,80.3,70.4,62.0,70.4,64.6,58.7,92,82,59,29.92,29.78,10,0,10,0.56
2012-8-28,79.6,70.4,63.2,68.5,63.9,53.6,94,82,46,29.92,29.81,10,1,14,0.01
2012-8-29,77.4,68.9,56.5,59.3,53.5,49.5,93,60,39,29.97,29.89,11,1,11,0.00
2012-8-30,87.2,67.1,49.2,57.6,50.6,44.0,93,62,24,30.01,29.92,0,0,0,0.00
2012-8-31,93.6,74.8,55.0,64.8,57.6,51.6,89,60,27,29.99,29.89,14,1,15,0.00
2012-9-1,84.1,76.0,70.3,73.3,67.9,64.5,93,77,62,29.97,29.86,12,0,12,0.64
2012-9-2,79.6,72.9,69.3,71.2,68.3,66.4,95,86,65,29.90,29.79,6,0,7,0.02
2012-9-3,88.0,76.2,68.6,72.2,68.4,65.3,93,78,52,29.82,29.74,9,0,10,0.00
2012-9-4,78.6,73.2,70.6,71.8,69.2,65.9,93,87,75,29.79,29.67,8,0,9,0.16
2012-9-5,85.5,73.6,66.1,69.2,64.5,60.5,93,75,46,29.77,29.68,9,0,9,0.00
2012-9-6,87.8,75.1,63.4,67.6,64.3,59.7,94,72,40,29.78,29.70,13,0,14,0.00
2012-9-7,84.3,71.0,63.1,69.6,63.8,58.2,94,79,54,29.78,29.55,20,1,20,0.05
2012-9-8,71.8,64.0,55.4,64.6,56.9,47.7,93,79,53,29.74,29.39,23,2,23,0.72
2012-9-9,69.8,59.0,50.1,52.5,49.8,46.2,93,73,48,29.94,29.73,12,0,12,0.00
2012-9-10,70.6,55.9,44.8,52.5,46.3,42.4,94,73,38,30.09,29.94,11,1,11,0.00
2012-9-11,76.7,60.7,45.2,52.8,47.1,43.0,93,66,33,30.17,30.08,7,0,8,0.01
2012-9-12,80.6,66.4,48.6,57.5,51.6,46.1,93,64,35,30.19,30.10,7,0,8,0.00
2012-9-13,83.1,62.9,54.9,59.1,55.1,52.3,92,78,37,30.18,30.07,1,0,9,0.00
2012-9-14,79.0,61.9,49.5,63.3,55.6,46.4,92,81,49,30.14,30.01,21,1,21,0.10
2012-9-15,72.1,56.6,43.9,55.1,46.4,42.2,95,72,37,30.19,30.06,9,1,9,0.01
2012-9-16,75.3,57.9,43.2,51.3,44.8,40.8,94,66,33,30.07,29.94,9,0,9,0.00
2012-9-17,76.7,61.7,45.7,58.2,48.1,42.7,91,65,33,29.95,29.67,8,0,8,0.00
2012-9-18,66.1,60.5,50.7,62.5,54.3,44.1,94,81,63,29.81,29.45,14,1,21,1.16
2012-9-19,64.7,51.7,40.1,44.1,37.7,31.0,89,62,31,30.05,29.81,8,0,10,0.00
2012-9-20,72.0,63.2,40.3,50.9,44.9,36.8,88,53,36,30.00,29.80,11,2,12,0.00
2012-9-21,70.6,62.5,56.7,53.8,49.5,40.2,84,64,37,29.83,29.58,13,1,14,0.04
2012-9-22,64.0,50.7,43.2,54.3,47.1,39.9,94,88,53,29.97,29.56,20,1,21,0.61
2012-9-23,58.0,47.9,37.2,46.7,39.4,34.7,94,75,42,30.08,29.97,12,1,13,0.01
2012-9-24,61.2,49.1,38.0,41.2,36.9,31.0,92,67,33,30.14,29.94,12,1,13,0.00
2012-9-25,66.0,53.4,42.2,54.0,44.1,36.3,88,72,50,29.98,29.84,11,1,11,0.12
2012-9-26,65.3,61.2,57.8,62.9,58.5,54.0,94,91,86,29.96,29.83,13,0,13,0.48
2012-9-27,62.0,56.3,52.5,60.3,54.4,50.3,95,93,91,30.05,29.96,12,0,12,0.22
2012-9-28,64.2,53.9,45.5,54.2,45.9,40.9,95,77,46,30.02,29.94,11,1,12,0.00
2012-9-29,68.1,52.4,39.8,48.9,43.2,37.5,94,74,42,29.98,29.80,8,0,8,0.00
2012-9-30,62.7,50.8,45.7,49.4,43.8,40.9,91,78,47,29.82,29.72,0,0,0,0.00
2012-10-1,63.7,50.9,37.5,50.4,42.1,35.4,94,75,46,29.84,29.67,11,0,12,0.18
2012-10-2,70.6,62.4,53.9,65.7,59.1,50.4,93,89,84,29.73,29.62,9,1,9,0.01
2012-10-3,72.5,65.5,56.2,64.3,58.1,51.9,94,78,49,30.01,29.72,14,1,16,0.01
2012-10-4,73.7,62.0,53.5,55.0,52.9,50.7,93,74,45,30.06,29.97,9,1,19,0.00
2012-10-5,72.8,62.9,49.6,57.8,54.4,45.6,86,74,58,29.97,29.78,14,1,14,0.04
2012-10-6,55.6,48.0,42.2,46.4,39.1,31.4,92,74,42,29.94,29.76,18,2,20,0.76
2012-10-7,48.0,41.9,36.2,38.5,35.4,32.1,91,78,54,30.07,29.95,13,1,15,0.00
2012-10-8,49.5,39.3,30.6,39.2,33.0,28.6,94,80,55,30.15,30.06,8,0,8,0.02
2012-10-9,57.5,43.0,28.5,41.1,33.4,26.2,93,72,40,30.11,29.88,8,0,10,0.00
2012-10-10,53.2,46.8,40.3,42.8,35.7,27.1,87,66,45,30.07,29.78,21,2,21,0.01
2012-10-11,56.9,43.7,31.0,32.0,28.5,26.0,85,58,32,30.19,30.02,14,1,14,0.00
2012-10-12,52.8,45.8,37.2,39.0,30.1,23.5,74,56,33,30.30,30.02,18,2,20,0.00
2012-10-13,62.7,40.2,31.5,42.0,29.1,24.8,77,66,46,30.30,30.09,9,1,10,0.00
2012-10-14,74.2,66.7,61.8,58.1,53.2,49.3,76,62,50,29.89,29.50,13,7,24,0.12
2012-10-15,66.7,51.5,46.7,58.9,45.0,41.5,89,79,68,29.79,29.49,18,2,27,0.21
2012-10-16,58.4,48.9,44.5,41.5,38.0,35.4,82,67,44,29.87,29.73,8,0,11,0.00
2012-10-17,71.7,50.9,43.3,49.3,39.7,36.7,79,67,38,29.76,29.57,6,1,11,0.00
2012-10-18,62.9,54.1,47.7,49.8,45.1,41.8,84,73,51,29.66,29.44,24,5,31,0.12
2012-10-19,62.0,50.9,44.6,45.1,39.5,27.7,88,69,28,29.64,29.45,24,5,24,0.14
2012-10-20,51.7,47.6,44.8,42.2,40.3,37.1,90,76,58,29.82,29.55,15,3,19,0.02
2012-10-21,59.8,48.9,40.5,41.7,37.9,35.3,86,68,43,30.01,29.82,14,1,14,0.00
2012-10-22,74.0,56.1,38.3,51.5,43.5,34.7,88,65,41,30.06,29.91,11,1,11,0.00
2012-10-23,73.2,66.0,60.4,55.8,50.6,48.6,72,58,45,29.91,29.84,16,2,16,0.00
2012-10-24,76.8,66.9,60.3,53.2,51.1,47.5,76,58,42,29.97,29.89,6,2,14,0.02
2012-10-25,79.9,67.3,55.0,51.1,47.2,43.2,75,52,29,29.96,29.82,15,3,15,0.00
2012-10-26,66.0,65.5,64.8,46.8,46.5,46.1,52,50,49,29.83,29.82,4,0,6,0.00
2012-10-27,49.2,46.2,44.0,44.9,42.7,41.2,91,88,82,29.95,29.87,8,6,21,0.57
2012-10-28,46.2,40.5,39.2,41.2,37.2,36.0,89,88,82,29.93,29.79,23,8,27,1.92
2012-10-29,41.6,40.2,39.1,39.3,37.0,35.8,92,88,86,29.79,29.23,42,12,42,3.30
2012-10-30,45.4,40.3,39.3,43.2,37.5,36.2,94,90,88,29.26,29.03,44,19,45,2.19
2012-10-31,43.0,36.8,35.5,41.4,34.6,33.2,94,92,91,29.46,29.26,19,3,21,0.25
2012-11-1,39.2,38.2,37.0,37.1,35.0,32.0,93,88,81,29.66,29.55,3,1,16,0.08
2012-11-2,38.9,37.2,34.0,32.5,29.4,26.9,82,73,65,29.93,29.65,20,3,20,0.00
2012-11-3,41.3,38.1,36.0,31.7,30.7,29.2,82,75,66,30.04,29.92,11,2,11,0.00
2012-11-4,38.5,36.9,35.0,31.0,28.1,25.9,82,70,62,30.04,30.00,12,2,13,0.00
2012-11-5,37.6,35.5,33.5,30.2,26.2,22.1,80,69,58,30.08,30.01,9,0,12,0.00
2012-11-6,46.1,36.2,27.5,25.7,23.3,21.0,78,60,41,30.06,29.83,11,1,11,0.00
2012-11-7,43.3,34.9,26.7,27.4,23.9,21.1,81,65,46,29.97,29.81,10,1,11,0.00
2012-11-8,45.7,34.6,25.4,31.5,26.3,20.7,86,72,54,30.10,29.97,12,1,12,0.00
2012-11-9,52.9,39.9,26.3,36.3,30.8,23.2,91,72,52,30.15,30.03,10,1,10,0.00
2012-11-10,63.9,52.8,43.1,42.5,39.7,33.0,90,63,43,30.11,30.01,12,3,12,0.23
2012-11-11,68.3,59.9,50.7,39.0,33.9,27.7,54,38,27,30.17,29.98,18,5,19,0.00
2012-11-12,64.2,52.5,33.7,53.2,41.4,25.6,90,68,34,30.23,29.84,24,7,26,0.82
2012-11-13,36.8,33.6,30.7,26.3,22.7,17.7,75,64,49,30.44,30.23,14,1,14,0.00
2012-11-14,34.7,32.9,31.8,26.0,24.3,21.8,78,70,62,30.47,30.41,13,0,13,0.00
2012-11-15,45.6,34.8,24.7,28.0,24.2,20.6,84,66,45,30.29,30.19,3,1,9,0.00
2012-11-16,49.1,36.7,26.9,35.5,28.4,23.6,89,74,45,30.33,30.23,11,1,11,0.00
2012-11-17,53.8,40.3,28.3,29.7,27.6,25.2,88,64,35,30.49,30.39,3,1,12,0.01
2012-11-18,55.3,44.2,34.3,28.6,26.7,24.9,69,52,31,30.42,30.31,5,1,12,0.00
2012-11-19,51.5,42.3,30.7,32.3,30.7,25.0,79,64,45,30.31,30.09,5,0,9,0.00
2012-11-20,55.7,42.9,33.5,36.5,30.7,27.1,87,64,35,30.09,29.97,6,0,6,0.00
2012-11-21,59.3,47.2,30.4,36.1,28.5,23.0,88,51,26,30.12,30.01,8,0,8,0.00
2012-11-22,60.7,45.8,30.1,36.6,31.6,25.3,82,60,39,30.12,29.86,11,3,12,0.00
2012-11-23,53.1,43.8,30.0,44.8,30.6,19.3,81,60,38,29.92,29.67,25,6,26,0.02
2012-11-24,31.2,29.6,28.7,23.1,20.3,15.6,78,68,54,30.01,29.89,24,3,24,0.00
2012-11-25,39.2,30.0,26.6,21.6,18.4,16.8,74,62,47,29.97,29.76,19,4,19,0.00
2012-11-26,42.9,35.7,26.7,26.1,24.2,20.9,82,63,46,30.12,29.90,11,1,11,0.00
2012-11-27,35.9,31.7,25.6,29.8,24.0,18.8,86,73,58,30.21,30.10,11,2,11,0.00
2012-11-28,37.8,30.3,24.4,22.0,20.1,16.7,82,67,44,30.26,30.17,5,1,16,0.00
2012-11-29,44.7,34.3,25.2,22.6,20.4,19.0,78,59,36,30.29,30.16,7,2,11,0.00
2012-11-30,46.4,44.2,42.7,30.2,29.3,28.0,60,56,53,30.11,30.10,0,0,4,0.00
2012-12-1,57.1,46.5,36.3,42.0,35.6,29.0,79,66,52,30.18,30.08,8,3,13,0.00
2012-12-2,53.9,52.5,50.3,52.2,46.9,39.3,94,82,65,30.06,29.89,10,6,19,0.19
2012-12-3,58.9,55.9,53.4,55.9,53.7,52.0,96,92,86,30.06,29.97,6,3,10,0.00
2012-12-4,59.6,54.5,42.0,55.0,48.9,39.6,91,82,70,30.00,29.83,9,6,22,0.57
2012-12-5,41.1,32.4,27.6,39.0,22.4,19.2,93,67,54,30.29,30.01,19,3,20,0.01
2012-12-6,43.5,34.8,23.2,28.6,24.4,19.4,86,67,48,30.25,29.90,7,1,11,0.00
2012-12-7,46.7,43.6,38.6,45.1,40.5,28.2,94,89,66,29.90,29.81,8,1,8,0.37
2012-12-8,52.0,48.1,39.5,49.0,44.9,35.4,95,88,79,29.97,29.67,8,4,19,0.03
2012-12-9,53.3,41.6,36.3,51.3,36.8,30.7,93,83,76,30.01,29.68,8,3,14,0.16
2012-12-10,56.5,50.7,47.9,54.5,48.4,45.7,93,92,88,29.56,29.49,10,4,14,0.50
2012-12-11,36.3,33.3,30.7,32.7,27.5,21.1,92,79,65,30.10,29.71,4,1,13,0.02
2012-12-12,39.5,30.6,24.6,23.7,21.4,19.8,82,69,48,30.33,30.12,3,0,8,0.00
2012-12-13,43.3,30.8,20.8,23.0,20.2,17.1,88,67,35,30.34,30.17,3,0,8,0.01
2012-12-14,47.6,36.6,28.7,29.0,23.9,18.8,73,61,41,30.18,30.10,3,1,9,0.00
2012-12-15,46.1,36.9,31.8,33.4,26.6,23.7,75,67,41,30.10,29.75,7,2,13,0.02
2012-12-16,56.4,52.6,47.2,50.4,43.4,33.6,89,71,58,29.71,29.53,9,6,14,0.29
2012-12-17,51.3,45.6,43.4,48.5,43.5,41.2,94,92,87,29.62,29.39,4,0,12,0.26
2012-12-18,45.1,38.2,35.2,43.5,32.2,25.4,94,80,52,29.70,29.39,18,3,18,0.15
2012-12-19,40.8,38.2,37.2,35.4,33.6,31.9,85,84,80,29.88,29.63,7,1,8,0.00
2012-12-20,47.8,40.6,33.9,43.2,34.7,29.8,89,80,60,30.01,29.20,15,9,30,0.51
2012-12-21,31.4,29.7,29.0,26.5,25.3,23.7,89,84,79,29.63,29.32,10,8,37,0.00
2012-12-22,30.2,29.0,24.1,26.0,20.2,17.6,88,69,65,30.00,29.66,13,6,38,0.00
2012-12-23,36.2,26.3,20.6,23.8,19.8,16.5,84,76,58,29.97,29.82,2,0,11,0.01
2012-12-24,35.2,27.5,21.8,29.3,22.6,17.8,90,82,70,29.91,29.68,7,1,15,0.02
2012-12-25,32.4,32.4,32.4,30.3,30.3,30.3,92,92,92,29.84,29.82,8,1,8,0.00
2012-12-27,30.7,28.3,26.4,27.9,24.9,21.8,90,87,80,30.04,29.56,6,3,18,0.01
2012-12-28,30.0,25.9,23.7,22.0,19.7,18.1,82,77,69,30.06,29.82,2,0,9,0.02
2012-12-29,31.5,27.6,24.6,27.3,23.6,18.7,89,85,76,29.87,29.60,7,2,15,0.00
2012-12-30,27.1,24.4,20.1,22.9,18.6,14.7,84,78,74,30.27,29.89,7,4,21,0.00
2012-12-31,31.1,25.5,19.4,26.7,20.3,15.1,89,81,63,30.21,29.92,7,5,16,0.00
2013-1-1,30.4,28.3,22.0,28.1,23.6,13.1,91,82,68,30.00,29.90,5,2,15,0.00